Location: Bergheim
(50.9593°N, 6.6400°E)
Time: 16:06:28
(UTC+01:00)

ISS - Visible Passes

Search period start: 13 December 2018 00:00
Search period end: 23 December 2018 00:00
Orbit: 401 x 408 km, 51.6° (Epoch: 13 December)

Date Brightness Start Highest point End Pass type
(mag) Time Alt. Az. Time Alt. Az. Time Alt. Az.
13 Dec -0.7 18:06:10 10° WSW 18:08:00 14° SW 18:09:49 10° S visible
14 Dec -1.0 17:13:27 10° W 17:16:02 22° SW 17:18:38 10° SSE visible
16 Dec -0.2 17:06:28 10° WSW 17:07:48 12° SW 17:09:07 10° SSW visible
